Powrót do katalogu

COSMOS 1883

GLONASS

AktywnyNawigacjaMEO
NORAD 18355·PAYLOAD·🇷🇺 Russia

Wystrzelony Sep 16, 1987 z Baikonur Cosmodrome

Loading…

Następne Przeloty (najbliższe 24 godziny)

TLE

ŚwieżeSource: Space-Track

Epoka: Sep 14, 2026, 05:08 UTC

1 18355U 87079A   26257.21428992 -.00000058  00000-0  00000-0 0  9996
2 18355  65.5406 315.7386 0006161 245.3987 201.7151  2.13101009303432

Śledź COSMOS 1883 w czasie rzeczywistym z AllMySat

Download on the App Store